Theta_e
313 311 313 314 314 317 319 320 321 321 320 319 320 320 320 319 318 319 315 316 313 314 314 317 319 326 346 346 345 344 343 342 344 351 348 345 346 345 345 346 345 345 345 344
319 317 313 313 315 316 317 319 320 319 318 317 318 318 318 318 318 320 319 315 318 313 312 314 316 343 347 347 347 347 346 345 345 348 352 349 346 350 347 346 347 347 349 347
321 320 319 317 315 316 317 317 317 317 317 316 316 317 317 317 318 319 319 319 317 317 314 313 313 318 348 348 348 348 347 346 346 348 350 352 353 350 351 353 350 352 353 351
317 315 317 317 320 319 319 316 317 319 318 316 316 319 317 316 317 321 320 319 318 316 315 315 313 314 346 348 348 347 347 346 348 350 351 349 351 353 352 353 353 353 355 355
319 318 319 319 320 321 323 320 322 323 323 322 321 316 315 316 318 318 318 318 317 317 317 315 314 313 326 348 348 347 345 344 349 351 351 352 352 351 351 352 354 353 352 355
319 316 317 318 318 319 319 321 322 323 322 326 322 320 319 315 315 317 318 319 319 318 314 315 314 315 323 352 351 350 348 349 348 342 352 351 353 355 354 353 355 355 355 352
311 312 313 317 318 317 320 323 327 328 328 330 322 323 320 315 315 317 318 318 318 316 314 314 313 314 319 347 355 353 352 354 353 352 356 356 353 354 355 356 356 354 352 353
315 314 314 316 316 316 318 319 326 328 329 322 321 325 320 318 315 316 317 318 319 317 316 316 313 313 320 335 353 357 355 355 357 358 356 356 355 354 355 354 355 354 352 352
316 319 314 315 316 319 320 321 320 324 322 325 325 322 319 318 318 316 316 317 318 317 316 317 316 313 323 332 344 355 358 357 357 358 356 355 353 352 351 351 351 351 351 349
314 316 316 316 318 318 318 320 320 317 324 326 323 322 320 319 322 321 323 323 322 318 312 315 317 314 325 331 336 345 355 357 357 355 354 352 351 349 350 350 351 350 347 345
315 318 316 316 319 319 321 322 320 319 322 322 320 317 321 319 325 326 325 324 327 327 317 312 317 317 320 329 332 337 345 352 351 351 351 351 351 350 350 350 349 346 343 341
315 314 318 316 316 319 321 319 321 321 321 324 321 320 324 326 328 327 327 326 331 333 333 322 317 317 316 326 328 333 349 350 347 347 345 344 344 344 344 344 341 338 334 333
315 316 315 309 320 317 318 318 318 321 322 321 322 320 323 323 323 324 324 324 335 342 341 331 317 320 323 329 337 346 348 343 341 340 339 336 336 335 332 333 332 329 324 318
315 314 314 316 315 316 317 316 318 320 324 324 324 322 322 322 325 324 326 324 324 344 345 344 342 343 343 344 345 344 341 338 335 332 330 327 325 323 320 319 317 316 315 315
313 312 313 314 315 315 315 315 314 318 321 326 322 323 326 328 326 323 324 325 323 335 344 345 346 345 342 341 340 337 335 332 329 325 322 319 317 317 317 315 314 314 314 313
312 316 312 312 313 315 316 314 314 316 319 320 320 323 326 327 328 327 328 322 329 340 341 342 340 338 337 333 331 328 326 324 322 319 317 316 315 315 314 314 313 312 311 310
308 308 312 313 313 314 316 324 324 325 317 318 323 323 329 329 330 330 329 330 329 329 332 335 334 333 331 329 326 323 321 319 318 317 316 315 314 313 313 312 311 309 308 307
309 308 312 314 311 314 322 319 320 323 320 318 321 328 329 329 328 326 325 324 323 322 322 321 323 325 323 322 321 319 319 318 316 315 313 312 312 311 309 308 308 308 307 306
308 311 315 315 312 315 321 319 319 322 326 325 327 328 327 325 324 325 320 319 318 318 317 315 314 313 314 315 314 313 312 311 311 311 310 310 309 308 308 308 308 307 307 305
313 311 316 317 318 320 321 315 314 319 332 324 327 327 325 322 324 323 319 319 317 315 314 313 312 311 310 310 311 310 309 309 308 308 308 308 308 308 308 308 307 306 305 303
317 314 317 317 317 318 314 312 316 329 328 316 319 327 322 322 320 317 314 314 312 311 310 309 309 309 308 307 308 308 307 307 307 307 308 308 308 308 307 306 306 305 304 303
317 317 318 317 319 319 310 313 320 316 312 315 321 320 318 317 316 314 313 312 311 310 308 307 306 305 306 306 306 306 306 306 307 307 306 306 306 306 305 305 305 304 304 303
317 315 316 314 314 310 311 311 311 312 315 321 319 318 316 316 314 313 312 311 310 309 308 306 305 303 303 304 305 305 306 306 306 306 305 304 304 304 304 305 304 304 304 304
313 312 314 314 311 311 311 310 310 312 320 318 317 316 315 314 313 312 311 310 309 308 307 305 304 303 303 304 306 306 306 306 305 303 303 303 303 302 301 301 302 302 302 301
310 311 314 312 311 311 310 310 310 311 317 316 315 314 313 312 312 311 310 309 309 308 306 305 303 303 302 303 304 306 306 305 303 302 301 300 299 299 298 297 297 299 298 299
310 312 311 311 311 312 311 310 310 311 311 313 313 313 312 311 311 310 310 309 308 307 306 305 303 302 301 301 302 304 305 304 302 301 299 297 296 294 294 293 293 293 295 296
Wind_Speed
4 5 14 6 10 11 13 14 14 11 8 11 19 25 18 11 8 14 10 11 10 11 10 17 16 26 35 42 42 45 48 46 41 33 31 29 31 34 34 31 30 30 30 29
3 11 9 11 12 12 16 20 23 20 16 15 20 21 13 8 9 15 16 11 15 8 9 8 17 28 35 38 41 41 43 46 40 31 29 28 31 33 35 31 29 34 31 33
13 14 8 14 18 17 18 18 18 19 17 18 18 20 13 8 6 8 17 17 18 17 14 10 10 18 27 34 40 46 44 44 40 30 30 21 20 23 27 26 29 28 29 31
12 4 10 4 11 15 16 17 17 14 9 11 5 16 16 6 9 9 10 18 17 16 12 12 11 8 26 34 41 46 53 43 39 37 33 31 28 22 27 30 26 23 21 25
15 18 14 9 9 4 12 13 5 9 1 2 8 3 5 6 7 9 10 9 15 19 18 13 10 16 29 32 41 44 47 45 45 42 41 36 27 33 28 21 21 26 25 22
18 11 7 9 9 10 19 13 6 6 1 6 11 5 14 9 8 8 9 8 12 20 11 11 12 21 27 34 38 42 44 42 42 47 41 38 32 29 25 27 28 27 23 18
10 16 18 12 10 13 8 4 2 4 6 5 9 5 12 8 13 14 18 14 10 11 9 9 10 10 17 30 36 41 42 39 42 43 39 39 40 35 30 26 29 24 22 22
7 5 9 2 14 8 7 10 5 4 4 5 6 6 11 19 13 8 19 17 9 11 11 13 13 12 15 27 33 36 42 39 38 40 39 41 37 33 32 30 27 23 20 17
4 4 6 13 9 7 4 5 12 9 9 1 4 6 10 17 14 15 13 14 9 9 10 15 16 12 17 24 31 35 38 39 40 39 35 36 34 33 29 23 21 20 20 21
3 6 3 13 6 6 6 4 3 2 6 5 5 6 10 7 4 6 5 8 8 9 9 10 14 12 22 30 34 35 36 40 37 34 34 31 32 31 30 27 24 24 26 25
7 4 3 7 4 2 3 2 4 4 4 4 3 7 1 6 3 7 8 11 15 11 13 10 14 16 25 30 31 32 30 30 33 34 35 35 33 33 31 29 28 28 26 22
5 3 4 6 5 3 3 3 1 3 5 4 4 9 1 1 2 4 9 12 20 13 9 13 17 19 14 26 28 28 32 31 33 39 38 36 36 36 37 35 31 29 30 29
5 1 3 6 3 3 4 1 2 6 4 8 5 7 1 5 6 6 8 11 12 5 5 3 8 13 13 18 26 30 34 34 37 42 42 38 39 38 37 39 35 35 35 32
5 3 4 4 5 7 9 10 7 5 4 7 14 9 11 8 7 10 16 9 15 1 10 12 13 16 17 26 32 32 32 39 39 40 41 39 37 39 41 41 38 36 32 29
1 4 3 5 12 16 17 17 15 10 12 7 6 13 8 3 4 4 12 13 17 16 11 17 18 18 18 21 28 30 34 39 42 41 38 38 41 41 41 37 35 31 28 24
4 3 3 6 13 9 9 13 17 16 17 14 12 16 5 5 3 4 6 11 22 11 8 12 17 19 20 20 29 34 35 34 44 40 39 37 38 41 37 34 31 28 26 23
4 2 3 5 8 13 5 0 13 11 14 19 9 9 4 4 3 2 8 7 18 17 11 14 16 17 14 25 33 36 39 40 39 41 36 36 38 38 31 29 27 25 25 22
6 1 1 5 6 3 6 13 14 15 9 10 5 5 9 8 10 12 10 16 18 18 18 16 15 14 20 28 37 40 41 40 37 35 34 33 38 33 28 26 24 24 25 24
16 5 3 2 2 8 5 9 10 9 5 9 8 11 13 15 17 12 13 16 18 20 18 17 26 28 21 28 30 40 38 38 36 32 31 33 35 31 27 25 26 26 25 23
13 12 3 1 3 4 4 21 21 12 0 15 7 12 13 11 9 3 9 15 18 20 24 21 28 29 28 29 25 39 35 35 31 31 33 32 30 28 27 28 27 25 22 23
2 2 4 3 4 5 12 25 16 1 4 17 10 7 9 9 9 9 14 17 18 20 24 28 26 24 33 30 22 34 34 29 30 34 34 31 29 29 27 26 23 22 23 23
4 3 1 2 2 4 17 13 5 5 14 10 3 17 19 17 15 16 16 18 18 19 25 30 27 25 25 36 21 30 29 29 33 34 33 31 27 26 24 22 21 20 21 22
3 4 3 3 2 9 10 9 11 11 14 3 16 16 19 19 17 17 16 17 16 18 22 25 25 26 24 27 27 27 24 34 34 33 31 29 27 24 21 20 18 16 14 17
7 7 3 2 5 9 12 12 12 13 10 13 17 17 17 18 17 17 16 15 15 21 21 20 21 22 23 28 29 29 28 29 31 30 27 26 27 25 20 20 19 20 21 20
3 7 5 2 5 1 13 12 12 14 11 16 14 17 19 20 15 17 15 15 14 20 20 20 19 20 21 25 24 22 22 25 27 26 25 24 22 22 19 18 17 17 14 14
7 4 5 5 10 5 10 11 13 20 16 15 18 15 16 20 16 17 13 15 19 19 19 19 18 17 20 22 22 17 19 22 25 21 21 23 22 21 22 23 21 18 15 14
Wind_Direction
224 202 231 200 226 255 267 274 272 274 262 228 250 265 263 254 228 240 220 226 191 213 231 225 202 171 173 176 179 181 184 189 185 189 183 190 198 200 202 215 222 224 224 218
261 239 234 211 233 237 243 254 261 275 267 264 265 268 269 257 237 234 229 222 238 193 219 214 222 158 168 173 180 185 191 192 187 186 188 195 194 200 205 209 223 226 227 222
216 227 208 221 233 241 242 242 258 255 263 259 271 275 262 246 254 255 241 225 219 217 198 213 202 175 166 173 181 189 196 194 192 191 193 194 195 205 204 206 215 221 224 222
227 261 243 275 290 259 252 261 272 288 256 249 237 260 257 227 230 235 240 232 222 220 217 197 194 164 176 181 183 190 193 191 195 195 194 193 191 201 206 209 212 219 221 224
265 282 262 257 240 244 268 286 322 306 305 195 281 249 268 191 245 240 230 233 226 227 209 207 200 179 188 182 184 190 191 194 195 194 201 200 198 207 211 209 215 224 230 233
269 271 252 241 247 224 252 259 331 280 186 255 250 189 261 238 216 261 264 266 246 222 215 197 198 185 180 182 184 189 193 194 198 196 201 201 193 198 204 207 206 208 206 212
277 262 262 232 256 274 228 105 283 224 214 220 226 256 252 258 244 221 245 249 224 222 206 202 197 187 174 183 183 185 188 191 195 193 195 195 196 203 199 189 192 185 197 185
251 241 217 223 211 184 190 169 189 248 183 240 230 203 248 251 262 249 240 247 229 219 221 209 202 199 186 177 183 186 187 186 187 188 192 195 202 200 192 196 187 182 190 182
289 250 340 328 244 160 180 167 196 209 260 247 235 280 283 263 263 263 255 245 244 216 223 224 217 187 183 176 180 188 186 182 185 183 182 189 191 187 180 175 177 172 161 158
229 286 350 275 293 225 158 158 172 313 187 208 241 242 241 303 253 299 284 296 276 286 229 215 219 201 184 180 180 179 182 176 176 170 172 170 169 165 161 164 159 154 149 144
263 203 246 304 246 217 139 206 87 115 165 185 264 254 310 275 15 303 299 299 296 267 255 221 210 208 188 176 175 169 167 152 142 146 152 151 152 155 156 150 149 146 140 136
297 171 252 253 320 49 93 79 29 179 214 244 170 249 271 6 342 275 305 318 299 249 228 232 209 202 178 169 163 158 141 138 132 136 134 132 139 143 139 137 136 136 130 131
329 296 314 350 240 38 43 336 172 269 250 216 207 264 234 6 340 324 317 329 307 200 94 123 135 147 141 135 136 137 139 129 126 127 128 126 128 128 125 130 133 131 130 126
265 225 195 229 250 286 278 265 227 231 273 233 235 275 293 296 323 339 327 359 320 197 111 109 115 118 123 127 131 136 133 125 124 120 120 117 118 121 121 125 127 125 126 124
103 244 246 263 269 269 270 273 268 221 233 246 238 229 261 227 268 343 329 329 288 267 126 124 121 119 120 120 123 126 124 123 123 117 115 115 118 120 123 124 120 122 121 119
356 278 299 268 271 272 276 275 270 242 230 241 250 275 216 198 216 62 1 297 253 89 55 97 109 106 111 115 121 117 113 115 117 116 115 116 116 119 123 121 119 117 119 120
276 256 360 273 316 306 293 87 312 291 219 216 211 228 134 224 62 173 142 85 59 58 58 80 87 89 107 120 120 114 114 114 113 112 114 113 116 117 120 119 117 117 120 122
256 198 268 283 327 328 1 26 329 316 212 192 244 98 105 85 60 54 83 88 73 69 61 61 70 86 108 108 108 111 111 111 108 108 108 111 114 117 117 115 116 121 125 117
210 206 265 273 291 284 303 22 344 342 327 301 120 114 113 96 73 41 77 92 93 86 84 79 81 80 76 97 106 105 101 103 103 105 107 111 118 117 119 121 126 126 121 115
203 205 220 264 306 305 353 332 325 305 68 19 32 133 134 121 89 54 56 74 87 87 85 89 87 93 88 76 99 99 99 100 104 106 109 116 119 122 122 128 127 122 117 114
76 142 225 225 242 270 359 324 313 54 315 327 330 140 87 84 92 87 77 74 75 79 86 86 83 88 87 87 89 96 95 94 105 109 113 115 117 118 121 120 123 123 122 119
360 304 44 312 308 316 346 337 40 329 300 294 95 106 102 99 99 93 84 87 85 83 83 82 78 72 84 99 96 87 90 102 106 107 108 111 113 115 118 122 126 129 132 123
25 343 349 25 359 305 322 312 300 296 268 147 111 118 118 113 102 93 87 83 83 85 84 87 100 95 81 92 92 93 99 108 111 110 107 112 118 119 120 127 131 125 127 143
348 6 12 299 357 330 355 350 345 333 107 119 117 118 111 107 104 99 97 89 82 84 84 88 86 88 79 87 99 103 114 118 116 115 119 121 118 117 115 112 114 118 123 129
315 302 341 303 339 291 19 10 8 27 85 107 106 114 113 106 102 103 96 93 92 92 88 87 85 80 80 83 89 103 119 126 118 120 123 121 119 119 118 110 105 115 117 134
342 338 40 45 18 44 40 24 39 49 55 79 99 95 97 103 104 98 93 94 96 93 89 86 87 90 85 84 87 101 124 133 131 123 126 127 125 122 117 117 104 99 108 113